Content
SEND FEEDBACK

Daily
Averages
Monthly
Summary
United States of America

PYGA BEACH, GUAM


Home > North America > United States > Guam
Elevation: 20 feet     Latitude: 13 17N     Longitude: 144 39E

WEATHER
 
SELECT A DAY
Number of Records: 350,199;   Date Range: 1/1/95 - 9/29/14
 
SHARE

PRINT THIS DATA

[ ← Previous Day ]
WEATHER ALMANAC - FEBRUARY 25, 2013
[ Next Day → ]
[ °C ]   °F
Weather ElementAverageHighLow
Temperature78.4 °F84.2 °F (2:06 pm)75.2 °F (2:41 am)
Dewpoint71.9 °F73.4 °F (11:44 am)69.8 °F (12:17 am)
Humidity80.4 %89 % (2:41 am)66 % (2:06 pm)
Barometer29.88 in29.92 in (8:55 am)29.83 in (3:55 pm)
Wind Speed18.4 mph23 mph (6:32 pm)
Wind Gust28.8 mph (1:29 pm)
Weather ElementAverage
Visibility10 mi
Wind DirectionNE (44.8 °)

Weather ElementTotal
Precipitation---
Cooling Degree Days14.7 (Base 65)
Growing Degree Days29.7 (Base 50)
Averaged from 95 records on February 25, 2013
WEATHER CONDITIONS BREAKOUT
WIND DIRECTION BREAKOUT
WEATHER BY HOUR - FEBRUARY 25, 2013
[ °C ]   °F
Local TimeTemperatureDewpointHumidityBarometerVisibilityWind DirectionWind SpeedGust SpeedPrecipitationEventsConditions
12:17 AM77.0 °F69.8 °F78 %29.90 in10.0 miNE (50°)17.3 mphMostly Cloudy
12:55 AM76.3 °F70.9 °F83 %29.88 in10.0 miNE (50°)18.4 mphPartly Cloudy
1:24 AM77.0 °F71.6 °F83 %29.88 in10.0 miNE (50°)18.4 mphMostly Cloudy
1:27 AM77.0 °F71.6 °F83 %29.88 in10.0 miNE (50°)17.3 mphMostly Cloudy
1:55 AM76.5 °F71.4 °F84 %29.86 in10.0 miNE (50°)16.1 mphScattered Clouds
2:02 AM77.0 °F71.6 °F83 %29.86 in10.0 miNE (50°)17.3 mphMostly Cloudy
2:05 AM77.0 °F71.6 °F83 %29.86 in10.0 miNE (50°)17.3 mphScattered Clouds
2:21 AM77.0 °F71.6 °F83 %29.86 in10.0 miNE (50°)15.0 mphMostly Cloudy
2:26 AM77.0 °F71.6 °F83 %29.86 in10.0 miNE (50°)18.4 mphRainLight Rain
2:41 AM75.2 °F71.6 °F89 %29.86 in10.0 miENE (60°)16.1 mphMostly Cloudy
2:55 AM75.9 °F70.9 °F84 %29.86 in10.0 miNE (50°)17.3 mph0.00 inOvercast
2:57 AM75.2 °F71.6 °F89 %29.86 in10.0 miNE (50°)17.3 mphMostly Cloudy
3:35 AM75.2 °F71.6 °F89 %29.86 in10.0 miNE (50°)16.1 mphMostly Cloudy
3:55 AM76.5 °F71.1 °F83 %29.86 in10.0 miNE (50°)19.6 mphMostly Cloudy
4:02 AM77.0 °F71.6 °F83 %29.86 in10.0 miNE (50°)19.6 mphScattered Clouds
4:21 AM77.0 °F71.6 °F83 %29.86 in10.0 miNE (50°)15.0 mphMostly Cloudy
4:28 AM77.0 °F71.6 °F83 %29.86 in10.0 miNE (50°)17.3 mphScattered Clouds
4:55 AM76.6 °F70.5 °F81 %29.85 in10.0 miNE (40°)21.9 mphScattered Clouds
5:08 AM77.0 °F71.6 °F83 %29.85 in10.0 miNE (50°)19.6 mphMostly Cloudy
5:19 AM77.0 °F71.6 °F83 %29.85 in10.0 miNE (50°)17.3 mph25.3 mphScattered Clouds
5:55 AM76.1 °F70.2 °F82 %29.86 in10.0 miNE (50°)18.4 mphPartly Cloudy
6:55 AM76.3 °F70.2 °F81 %29.88 in10.0 miNE (50°)20.7 mphPartly Cloudy
7:10 AM77.0 °F71.6 °F83 %29.89 in10.0 miNE (50°)16.1 mphMostly Cloudy
7:16 AM77.0 °F71.6 °F83 %29.89 in10.0 miNE (50°)17.3 mphScattered Clouds
7:18 AM77.0 °F71.6 °F83 %29.90 in10.0 miNE (50°)16.1 mphMostly Cloudy
7:19 AM77.0 °F69.8 °F78 %29.90 in10.0 miNE (50°)17.3 mphMostly Cloudy
7:23 AM77.0 °F69.8 °F78 %29.90 in10.0 miNE (50°)15.0 mphMostly Cloudy
7:27 AM77.0 °F69.8 °F78 %29.90 in10.0 miNE (50°)16.1 mphMostly Cloudy
7:30 AM77.0 °F69.8 °F78 %29.90 in10.0 miNE (50°)15.0 mphMostly Cloudy
7:35 AM77.0 °F71.6 °F83 %29.90 in10.0 miNE (50°)15.0 mphMostly Cloudy
7:37 AM77.0 °F71.6 °F83 %29.90 in10.0 miNE (40°)18.4 mphMostly Cloudy
7:55 AM78.1 °F71.1 °F79 %29.91 in10.0 miNE (50°)16.1 mphMostly Cloudy
8:07 AM78.8 °F71.6 °F78 %29.91 in10.0 miENE (60°)17.3 mphMostly Cloudy
8:14 AM78.8 °F71.6 °F78 %29.91 in10.0 miNE (50°)18.4 mphMostly Cloudy
8:18 AM78.8 °F71.6 °F78 %29.91 in10.0 miENE (60°)17.3 mphScattered Clouds
8:55 AM79.5 °F70.9 °F75 %29.92 in10.0 miNE (50°)18.4 mphPartly Cloudy
9:55 AM81.5 °F71.2 °F71 %29.92 in10.0 miNE (40°)18.4 mph24.2 mphPartly Cloudy
10:55 AM82.4 °F71.4 °F69 %29.92 in10.0 miNE (40°)19.6 mphPartly Cloudy
11:29 AM82.4 °F71.6 °F70 %29.91 in10.0 miNE (40°)20.7 mphMostly Cloudy
11:44 AM82.4 °F73.4 °F74 %29.90 in10.0 miNE (40°)19.6 mphMostly Cloudy
11:48 AM82.4 °F73.4 °F74 %29.90 in10.0 miNE (40°)21.9 mphMostly Cloudy
11:49 AM82.4 °F73.4 °F74 %29.90 in10.0 miNE (40°)20.7 mphMostly Cloudy
11:55 AM82.4 °F72.9 °F73 %29.90 in10.0 miNE (40°)16.1 mphScattered Clouds
12:21 PM82.4 °F73.4 °F74 %29.88 in10.0 miNE (40°)19.6 mphMostly Cloudy
12:55 PM82.2 °F71.6 °F70 %29.87 in10.0 miNE (40°)20.7 mphMostly Cloudy
1:29 PM82.4 °F71.6 °F70 %29.86 in10.0 miNE (50°)19.6 mph28.8 mphMostly Cloudy
1:55 PM82.6 °F72.1 °F71 %29.86 in10.0 miNE (40°)20.7 mphMostly Cloudy
2:06 PM84.2 °F71.6 °F66 %29.86 in10.0 miNE (40°)20.7 mphScattered Clouds
2:11 PM84.2 °F71.6 °F66 %29.85 in10.0 miNE (40°)20.7 mphMostly Cloudy
2:13 PM84.2 °F71.6 °F66 %29.85 in10.0 miNE (40°)19.6 mphScattered Clouds
2:25 PM84.2 °F71.6 °F66 %29.85 in10.0 miNE (40°)19.6 mph27.6 mphMostly Cloudy
2:27 PM84.2 °F71.6 °F66 %29.85 in10.0 miNE (40°)20.7 mph27.6 mphScattered Clouds
2:28 PM84.2 °F71.6 °F66 %29.85 in10.0 miNE (40°)19.6 mph25.3 mphMostly Cloudy
2:55 PM82.0 °F72.5 °F73 %29.84 in10.0 miNE (40°)20.7 mphMostly Cloudy
3:55 PM81.5 °F72.5 °F74 %29.83 in10.0 miNE (40°)16.1 mphMostly Cloudy
4:01 PM80.6 °F71.6 °F74 %29.83 in10.0 miNE (40°)18.4 mphScattered Clouds
4:06 PM80.6 °F73.4 °F79 %29.83 in10.0 miNE (40°)18.4 mphMostly Cloudy
4:18 PM80.6 °F71.6 °F74 %29.83 in10.0 miNE (50°)18.4 mphMostly Cloudy
5:07 PM80.6 °F71.6 °F74 %29.85 in10.0 miNE (40°)18.4 mphMostly Cloudy
5:55 PM79.5 °F71.8 °F77 %29.86 in10.0 miNE (40°)17.3 mphMostly Cloudy
6:32 PM78.8 °F73.4 °F83 %29.87 in10.0 miENE (60°)23.0 mphOvercast
6:34 PM78.8 °F73.4 °F83 %29.87 in10.0 miENE (60°)18.4 mph26.5 mphRainLight Rain
6:38 PM77.0 °F73.4 °F89 %29.87 in9.0 miNE (50°)17.3 mph26.5 mphRainLight Rain
6:39 PM77.0 °F73.4 °F89 %29.87 in9.0 miNE (50°)16.1 mph26.5 mphRainLight Rain
6:41 PM77.0 °F73.4 °F89 %29.87 in9.0 miNE (40°)17.3 mph26.5 mphRainLight Rain
6:43 PM77.0 °F73.4 °F89 %29.87 in9.0 miNE (40°)18.4 mphLight Drizzle
6:46 PM77.0 °F71.6 °F83 %29.87 in10.0 miNE (50°)18.4 mphMostly Cloudy
6:55 PM77.0 °F71.4 °F83 %29.87 in10.0 miNE (50°)17.3 mph24.2 mph0.00 inMostly Cloudy
7:55 PM77.7 °F72.7 °F84 %29.89 in10.0 miNE (40°)20.7 mph28.8 mphMostly Cloudy
8:55 PM77.4 °F71.8 °F83 %29.91 in10.0 miNE (40°)16.1 mphMostly Cloudy
9:21 PM77.0 °F71.6 °F83 %29.91 in10.0 miNNE (30°)20.7 mphMostly Cloudy
9:28 PM77.0 °F73.4 °F89 %29.91 in10.0 miNNE (30°)17.3 mphMostly Cloudy
9:42 PM77.0 °F73.4 °F89 %29.91 in10.0 miNE (40°)17.3 mph20.7 mphOvercast
9:45 PM77.0 °F73.4 °F89 %29.91 in10.0 miNNE (30°)17.3 mph20.7 mphOvercast
9:46 PM77.0 °F73.4 °F89 %29.91 in10.0 miNNE (30°)16.1 mph20.7 mphOvercast
9:49 PM77.0 °F73.4 °F89 %29.91 in10.0 miNE (40°)16.1 mphMostly Cloudy
9:55 PM77.4 °F73.2 °F87 %29.91 in10.0 miNE (40°)21.9 mph26.5 mphOvercast
9:59 PM77.0 °F73.4 °F89 %29.91 in10.0 miNE (40°)18.4 mph26.5 mphOvercast
10:01 PM77.0 °F73.4 °F89 %29.91 in10.0 miNNE (30°)16.1 mph26.5 mphOvercast
10:05 PM77.0 °F73.4 °F89 %29.91 in10.0 miNNE (30°)17.3 mphOvercast
10:11 PM77.0 °F73.4 °F89 %29.91 in10.0 miNE (40°)20.7 mphMostly Cloudy
10:26 PM78.8 °F71.6 °F78 %29.90 in10.0 miNE (40°)18.4 mphOvercast
10:28 PM78.8 °F71.6 °F78 %29.90 in10.0 miNE (40°)19.6 mphOvercast
10:34 PM77.0 °F71.6 °F83 %29.90 in10.0 miNE (40°)21.9 mphMostly Cloudy
10:38 PM77.0 °F71.6 °F83 %29.90 in10.0 miNE (40°)19.6 mphMostly Cloudy
10:55 PM77.7 °F72.0 °F82 %29.90 in10.0 miNE (40°)21.9 mphMostly Cloudy
10:59 PM77.0 °F71.6 °F83 %29.89 in10.0 miNE (50°)18.4 mphMostly Cloudy
11:00 PM77.0 °F71.6 °F83 %29.89 in10.0 miNE (50°)19.6 mphMostly Cloudy
11:04 PM77.0 °F71.6 °F83 %29.89 in10.0 miNE (50°)18.4 mphMostly Cloudy
11:12 PM77.0 °F71.6 °F83 %29.90 in10.0 miNE (40°)19.6 mphMostly Cloudy
11:25 PM77.0 °F71.6 °F83 %29.90 in10.0 miNE (40°)18.4 mphMostly Cloudy
11:28 PM77.0 °F71.6 °F83 %29.90 in10.0 miNE (50°)19.6 mphMostly Cloudy
11:29 PM77.0 °F71.6 °F83 %29.90 in10.0 miNE (40°)18.4 mphMostly Cloudy
11:37 PM77.0 °F71.6 °F83 %29.90 in10.0 miNE (50°)17.3 mphMostly Cloudy
11:55 PM77.7 °F72.7 °F84 %29.90 in10.0 miNE (40°)19.6 mphMostly Cloudy
Hourly data recorded from PGUA, located miles away from Pyga Beach, Guam







STORIES FROM OUR PARTNERS